Regional Weather Roundup
Issued by NWS Charleston, WV

Home | Current Version | Previous Version | Text Only | Print | Product List | Glossary Off
Versions: 1 2 3 4 5 6 7 8 9 10 11 12 13 14 15 16 17 18 19 20 21 22 23 24 25 26 27 28 29 30 31 32 33 34 35 36 37 38 39 40 41 42 43 44 45 46 47 48 49

000
ASUS41 KRLX 020510
RWRRLX
West Virginia Regional Weather Roundup
National Weather Service Charleston WV
100 AM EDT WED SEP 02 2015

Note: "fair" indicates few or no clouds below 12,000 feet with no
significant weather and/or obstructions to visibility.

WVZ003-020600-
Northern Panhandle of West Virginia

CITY           SKY/WX    TMP DP  RH WIND       PRES   REMARKS
WHEELING       CLEAR     72  67  84 CALM      30.12S
$$

WVZ009-020600-
Northwest West Virginia

CITY           SKY/WX    TMP DP  RH WIND       PRES   REMARKS
PARKERSBURG    CLOUDY    69  67  93 CALM      30.14S
$$

WVZ006-020600-
Western West Virginia

CITY           SKY/WX    TMP DP  RH WIND       PRES   REMARKS
HUNTINGTON     CLEAR     70  69  97 CALM      30.12S FOG
$$

WVZ015-020600-
West Central West Virginia

CITY           SKY/WX    TMP DP  RH WIND       PRES   REMARKS
CHARLESTON     CLEAR     70  67  90 CALM      30.13R
$$

WVZ022-031-020600-
North Central West Virginia

CITY           SKY/WX    TMP DP  RH WIND       PRES   REMARKS
CLARKSBURG     MOCLDY    71  67  87 CALM      30.13S
MORGANTOWN     PTCLDY    75  64  68 CALM      30.14S
$$

WVZ025-035-042-045-020600-
Southern West Virginia

CITY           SKY/WX    TMP DP  RH WIND       PRES   REMARKS
BECKLEY        PTCLDY    66  62  87 CALM      30.21S
LOGAN            N/A     70  68  94 CALM      30.16S FOG
BLUEFIELD      PTCLDY    70  62  76 W3        30.24S
LEWISBURG      FOG       66  64  93 CALM      30.21R VSB 1/4
$$

WVZ047-020600-
Northern Mountains of West Virginia

CITY           SKY/WX    TMP DP  RH WIND       PRES   REMARKS
ELKINS         MOCLDY    64  62  93 CALM      30.19F FOG
$$

WVZ052-020600-
Eastern Panhandle of West Virginia

CITY           SKY/WX    TMP DP  RH WIND       PRES   REMARKS
MARTINSBURG    PTCLDY    73  67  81 CALM      30.08S HAZE
PETERSBURG     PTCLDY    68  68  98 CALM      30.13S FOG
$$


USA.gov is the U.S. government's official web portal to all federal, state and local government web resources and services.